FW0527 Weather Reports


time (UTC)temp
F
wind
direction
speed
knots
gust
knots
rain 1hr
in
rain 24hr
in
rain mn
in
humidity
%
barometer
mb
20260506181521 63 306 0.0 8.7 0.00 0.01 0.01 59 1019.1
20260506180017 62 279 0.0 0.0 0.00 0.01 0.01 61 1019.2
20260506174515 61 321 0.0 8.7 0.00 0.03 0.01 63 1019.1
20260506173013 61 332 0.0 9.6 0.00 0.03 0.01 64 1019.3
20260506171511 60 303 0.0 7.8 0.00 0.03 0.01 66 1019.2
20260506170005 59 313 0.0 5.2 0.00 0.03 0.01 68 1019.1
20260506164500 57 300 0.0 0.0 0.00 0.04 0.01 72 1018.9
20260506163116 54 304 0.0 0.0 0.00 0.04 0.01 80 1019.0
20260506161552 51 306 0.0 0.0 0.00 0.04 0.01 89 1019.0
20260506160048 49 307 0.0 0.0 0.00 0.04 0.01 96 1019.0
20260506154605 47 308 0.0 0.0 0.00 0.08 0.01 96 1019.1
20260506153049 44 308 0.0 0.0 0.00 0.08 0.01 96 1019.2
20260506151535 42 308 0.0 0.0 0.00 0.08 0.01 95 1019.1
20260506150033 40 308 0.0 0.0 0.00 0.08 0.01 95 1019.0
20260506144531 40 308 0.0 0.0 0.00 0.10 0.01 94 1019.0
20260506143040 39 308 0.0 0.0 0.00 0.10 0.01 94 1018.9
20260506141532 38 308 0.0 0.0 0.00 0.10 0.01 93 1018.8
20260506140028 37 308 0.0 0.0 0.00 0.10 0.01 93 1019.0
20260506134526 37 308 0.0 0.0 0.00 0.16 0.01 92 1018.7
20260506133026 37 308 0.0 0.0 0.00 0.16 0.01 92 1018.6
20260506131524 37 308 0.0 0.0 0.00 0.16 0.01 92 1018.4
20260506130022 37 308 0.0 0.0 0.01 0.16 0.01 92 1018.0
20260506124520 37 308 0.0 0.0 0.01 0.23 0.01 92 1017.8
20260506123020 37 308 0.0 0.0 0.01 0.23 0.01 92 1017.8
20260506121519 37 308 0.0 0.0 0.01 0.23 0.01 92 1017.8
20260506120017 37 308 0.0 0.0 0.00 0.22 0.00 92 1017.7
20260506114517 37 308 0.0 0.0 0.00 0.26 0.00 92 1017.8
20260506113016 38 308 0.0 0.0 0.00 0.26 0.00 92 1017.8
20260506111514 37 308 0.0 0.0 0.00 0.26 0.00 92 1017.6
20260506110014 37 308 0.0 0.0 0.00 0.26 0.00 92 1017.5
20260506104512 37 308 0.0 0.0 0.00 0.30 0.00 91 1017.6
20260506103011 37 308 0.0 0.0 0.00 0.30 0.00 91 1017.5
20260506101510 37 308 0.0 0.0 0.00 0.30 0.00 90 1017.3
20260506100008 37 308 0.0 0.0 0.00 0.30 0.00 90 1017.3
20260506094506 37 308 0.0 0.0 0.00 0.36 0.00 90 1017.3
20260506093005 38 308 0.0 0.0 0.00 0.36 0.00 90 1017.3
20260506091501 39 308 0.0 0.0 0.00 0.36 0.00 90 1017.3
20260506090058 39 308 0.0 0.0 0.00 0.36 0.00 90 1017.5
20260506084557 39 308 0.0 0.0 0.00 0.37 0.00 90 1017.7
20260506083103 39 308 0.0 0.0 0.00 0.37 0.00 91 1017.9
20260506081553 39 308 0.0 0.0 0.00 0.37 0.00 90 1018.1
20260506073049 40 308 0.0 0.0 0.00 0.37 0.00 89 1018.3
20260506071546 40 308 0.0 0.0 0.00 0.37 0.00 89 1018.4
20260506061538 42 308 0.0 0.0 0.00 0.37 0.37 89 1018.1
20260506044542 44 306 0.0 4.3 0.00 0.38 0.37 89 1017.7
20260506043031 44 303 0.0 4.3 0.00 0.38 0.37 89 1017.5
20260506041529 44 302 0.0 1.7 0.00 0.38 0.37 89 1017.2
20260506040049 44 302 0.0 0.0 0.00 0.38 0.37 88 1017.0
20260506034527 44 302 0.0 0.0 0.00 0.38 0.37 88 1017.0
20260506033026 44 304 0.0 0.0 0.00 0.38 0.37 87 1016.7
20260506031539 45 306 0.0 0.0 0.00 0.38 0.37 86 1016.4
20260506030022 45 307 0.0 0.0 0.00 0.38 0.37 85 1016.2
20260506024522 45 304 0.0 3.5 0.00 0.38 0.37 85 1016.1
20260506023021 45 302 0.0 0.0 0.00 0.38 0.37 84 1015.8
20260506021519 45 315 0.0 0.0 0.00 0.38 0.37 83 1015.7
20260506020019 46 309 0.0 0.0 0.00 0.38 0.37 82 1015.6
20260506014518 46 312 0.0 0.0 0.00 0.38 0.37 81 1015.6
20260506013017 46 306 0.0 8.7 0.00 0.38 0.37 80 1015.2
20260506011516 47 305 0.0 5.2 0.00 0.38 0.37 80 1015.2
20260506010016 47 316 0.0 3.5 0.00 0.38 0.37 80 1014.9
20260506004523 47 346 0.0 7.0 0.00 0.38 0.37 77 1014.8
20260506003015 48 259 0.0 3.5 0.00 0.38 0.37 79 1014.8
20260506001514 48 311 0.0 3.5 0.00 0.38 0.37 78 1014.6
20260506000011 48 306 0.0 9.6 0.00 0.38 0.37 75 1014.6
20260505234510 49 252 0.0 8.7 0.00 0.38 0.37 75 1014.6
20260505233008 49 281 0.0 8.7 0.00 0.38 0.37 79 1014.4
20260505231506 49 285 0.0 7.0 0.00 0.38 0.37 82 1014.6
20260505230004 48 253 0.0 6.1 0.00 0.38 0.37 84 1014.7
20260505224503 48 322 0.0 1.7 0.00 0.38 0.37 84 1014.8
20260505223002 49 254 0.0 9.6 0.00 0.38 0.37 87 1014.8
20260505221557 49 242 0.0 11.3 0.00 0.38 0.37 89 1014.8
20260505220053 49 336 2.6 8.7 0.00 0.38 0.37 93 1014.9
20260505214554 48 253 2.6 10.4 0.00 0.38 0.37 95 1015.1
20260505213047 47 315 3.5 13.0 0.00 0.38 0.37 95 1015.1
20260505211546 47 265 0.0 8.7 0.00 0.38 0.37 95 1015.2
20260505210044 47 295 3.5 10.4 0.00 0.38 0.37 96 1015.3
20260505204546 45 294 0.9 6.1 0.00 0.38 0.37 95 1015.2
20260505203042 46 264 0.0 9.6 0.00 0.38 0.37 96 1015.2
20260505201539 45 292 0.9 7.8 0.00 0.38 0.37 95 1015.3
20260505200044 45 305 0.0 8.7 0.00 0.38 0.37 95 1015.2
20260505194539 45 321 0.0 7.8 0.00 0.38 0.37 95 1015.2
20260505193037 44 296 1.7 8.7 0.00 0.38 0.37 95 1015.3
20260505191537 44 290 0.9 7.8 0.00 0.38 0.37 95 1015.5
20260505190039 43 302 0.9 8.7 0.00 0.38 0.37 95 1015.5
20260505184534 45 323 1.7 11.3 0.00 0.38 0.37 95 1015.2
20260505183038 45 310 1.7 10.4 0.01 0.38 0.37 95 1015.2